Regional Weather Roundup
Issued by NWS Midland/Odessa, TX

Skip options and go directly to product.
Home | Oldest Version | Previous Version | Current Version | All | Text Only | Save Text | Print | Product List | Glossary Off

Skip product version selection by date and time.   

734
ASUS44 KMAF 051610
RWRMAF
MIDLAND AREA WEATHER ROUNDUP
NATIONAL WEATHER SERVICE MIDLAND TX
1100 AM CDT TUE MAY 05 2015

...IN SOUTHWEST TEXAS AND SOUTHEAST NEW MEXICO...

CITY           SKY/WX    TMP DP  RH WIND       PRES   REMARKS
ALPINE         MOSUNNY   72  38  28 W10G18    30.06R
ANDREWS        CLOUDY    63  58  84 CALM      29.92S
ARTESIA        SUNNY     66  55  68 S6        29.93S
BIG SPRING     CLOUDY    68  64  85 SE14      29.93S
CARLSBAD       SUNNY     69  53  56 VRB3      29.91S
DRYDEN           N/A     78  64  61 NE5       29.90S
FORT STOCKTON  SUNNY     70  59  68 W12       29.94R
GUAD PASS      MOSUNNY   61  51  70 SW14      30.03R
HOBBS          PTSUNNY   61  59  94 VRB3      29.95S
MARFA          SUNNY     70  39  32 NW14      30.05R
MIDLAND AIRPK  CLOUDY    64  60  87 NE12      29.91S
MIDLAND INTL   PTSUNNY   71  62  73 S17       29.90R
ODESSA         MOSUNNY   71  62  73 SW14      29.91R
PECOS          SUNNY     73  53  49 NW7       29.92S
PRESIDIO       FAIR      79  37  21 W8G20     29.95R
SEMINOLE       MOSUNNY   63  59  88 CALM      29.93F
SNYDER         CLOUDY    62  59  89 NW12      29.95R
WINK           SUNNY     71  56  58 NW8       29.90R
$$
...OTHER STATIONS IN TEXAS...

CITY           SKY/WX    TMP DP  RH WIND       PRES   REMARKS
ABILENE        CLOUDY    69  59  70 S22G31    29.94R
AMARILLO       RAIN      56  54  93 VRB3      29.88F FOG
AUSTIN         PTSUNNY   76  65  68 SE15G25   30.00R
BROWNSVILLE    CLOUDY    81  71  71 SE24G32   29.93S
CORPUS CHRISTI PTSUNNY   79  68  69 SE17G26   29.97R
DALLAS FTW     CLOUDY    73  63  70 SE13      30.04R
DEL RIO        CLOUDY    70  67  90 SE14G23   29.90S FOG
EL PASO        MOSUNNY   68  39  34 SW13G22   29.97S
HOUSTON INT    PTSUNNY   74  71  91 SE16G22   30.05R
LUBBOCK        CLOUDY    59  54  83 S10       29.90R
SAN ANGELO     CLOUDY    71  61  70 S20G30    29.92S
SAN ANTONIO    CLOUDY    75  65  70 S15G25    29.99R
WACO           CLOUDY    73  64  73 SE15G24   30.03R
WICHITA FALLS  NOT AVBL
$$
...OTHER LOCATIONS IN NEW MEXICO...

CITY           SKY/WX    TMP DP  RH WIND       PRES   REMARKS
ALAMAGORDO     MOSUNNY   63  54  72 S13       29.97S
ALBUQUERQUE    MOSUNNY   57  42  57 SW12      29.96R
CANNON AFB     PTSUNNY   59  54  82 W16       29.91S
CLOVIS         PTSUNNY   61  52  72 MISG        N/A
HOLLOMAN AFB   NOT AVBL
ROSWELL        SUNNY     66  54  65 VRB6      29.90F
RUIDOSO        MOSUNNY   55  41  58 S7        30.02F
SANTA FE       PTSUNNY   53  43  68 SE8       29.95F THUNDER
TRUTH OR CONSE MOSUNNY   63  37  38 SW12      29.96S
TUCUMCARI      CLOUDY    59  53  80 SW6       29.89R
$$

USA.gov is the U.S. government's official web portal to all federal, state and local government web resources and services.